TimeAKDT,TemperatureF,Dew PointF,Humidity,Sea Level PressureIn,VisibilityMPH,Wind Direction,Wind SpeedMPH,Gust SpeedMPH,PrecipitationIn,Events,Conditions,WindDirDegrees,DateUTC
12:16 AM,19.4,15.8,86,29.17,10.0,North,6.9,-,N/A,,Overcast,350,2012-10-15 08:16:00
12:36 AM,17.6,15.8,93,29.16,10.0,North,6.9,-,N/A,,Overcast,360,2012-10-15 08:36:00
12:56 AM,17.6,15.8,93,29.16,10.0,North,8.1,-,N/A,,Overcast,350,2012-10-15 08:56:00
1:16 AM,17.6,15.8,93,29.16,10.0,North,6.9,-,N/A,,Overcast,360,2012-10-15 09:16:00
1:36 AM,17.6,17.6,100,29.15,6.0,North,4.6,-,N/A,,Overcast,350,2012-10-15 09:36:00
1:56 AM,17.6,17.6,100,29.15,8.0,North,6.9,-,N/A,,Overcast,350,2012-10-15 09:56:00
2:16 AM,17.6,15.8,93,29.15,10.0,North,6.9,-,N/A,,Overcast,360,2012-10-15 10:16:00
2:36 AM,17.6,15.8,93,29.15,10.0,North,6.9,-,N/A,,Overcast,350,2012-10-15 10:36:00
2:56 AM,17.6,17.6,100,29.15,10.0,North,6.9,-,N/A,,Overcast,350,2012-10-15 10:56:00
3:16 AM,17.6,15.8,93,29.15,10.0,North,8.1,-,N/A,,Overcast,350,2012-10-15 11:16:00
3:36 AM,17.6,15.8,93,29.14,10.0,North,8.1,-,N/A,,Overcast,360,2012-10-15 11:36:00
3:56 AM,17.6,15.8,93,29.14,10.0,North,9.2,-,N/A,,Overcast,360,2012-10-15 11:56:00
4:16 AM,17.6,15.8,93,29.14,10.0,North,5.8,-,N/A,,Overcast,350,2012-10-15 12:16:00
4:36 AM,17.6,15.8,93,29.14,10.0,North,8.1,-,N/A,,Overcast,360,2012-10-15 12:36:00
4:56 AM,17.6,15.8,93,29.13,10.0,North,8.1,-,N/A,,Overcast,360,2012-10-15 12:56:00
5:16 AM,17.6,15.8,93,29.13,10.0,North,9.2,-,N/A,,Overcast,360,2012-10-15 13:16:00
5:36 AM,17.6,15.8,93,29.13,10.0,North,10.4,-,N/A,,Overcast,360,2012-10-15 13:36:00
5:56 AM,17.6,15.8,93,29.13,10.0,North,10.4,-,N/A,,Overcast,360,2012-10-15 13:56:00
6:16 AM,17.6,15.8,93,29.13,10.0,North,10.4,-,N/A,,Overcast,360,2012-10-15 14:16:00
6:36 AM,17.6,15.8,93,29.12,10.0,North,10.4,-,N/A,,Overcast,360,2012-10-15 14:36:00
6:56 AM,17.6,15.8,93,29.13,10.0,North,9.2,-,N/A,,Overcast,360,2012-10-15 14:56:00
7:16 AM,17.6,15.8,93,29.13,10.0,North,10.4,-,N/A,,Overcast,360,2012-10-15 15:16:00
7:36 AM,17.6,15.8,93,29.13,4.0,North,10.4,-,N/A,,Overcast,360,2012-10-15 15:36:00
7:56 AM,17.6,15.8,93,29.13,2.0,NNE,8.1,-,N/A,,Overcast,20,2012-10-15 15:56:00
8:16 AM,17.6,15.8,93,29.13,2.0,NNE,6.9,-,N/A,,Overcast,20,2012-10-15 16:16:00
8:36 AM,17.6,15.8,93,29.13,1.5,North,4.6,-,N/A,,Overcast,360,2012-10-15 16:36:00
8:56 AM,17.6,15.8,93,29.13,0.8,North,5.8,-,N/A,,Overcast,10,2012-10-15 16:56:00
9:16 AM,17.6,15.8,93,29.13,1.0,North,6.9,-,N/A,,Overcast,360,2012-10-15 17:16:00
9:36 AM,17.6,15.8,93,29.13,0.8,North,5.8,-,N/A,,Overcast,10,2012-10-15 17:36:00
9:56 AM,17.6,15.8,93,29.14,1.2,North,5.8,-,N/A,,Overcast,360,2012-10-15 17:56:00
10:16 AM,17.6,15.8,93,29.14,1.0,North,4.6,-,N/A,,Overcast,360,2012-10-15 18:16:00
10:36 AM,17.6,15.8,93,29.14,0.8,North,4.6,-,N/A,,Overcast,360,2012-10-15 18:36:00
10:56 AM,17.6,15.8,93,29.15,1.0,North,6.9,-,N/A,,Overcast,360,2012-10-15 18:56:00
11:16 AM,17.6,15.8,93,29.15,0.8,North,6.9,-,N/A,,Overcast,10,2012-10-15 19:16:00
11:36 AM,17.6,15.8,93,29.15,0.8,North,6.9,-,N/A,,Overcast,10,2012-10-15 19:36:00
11:56 AM,17.6,17.6,100,29.16,0.8,North,5.8,-,N/A,,Overcast,360,2012-10-15 19:56:00
12:16 PM,17.6,17.6,100,29.16,1.0,North,4.6,-,N/A,,Overcast,10,2012-10-15 20:16:00
12:36 PM,19.4,17.6,93,29.16,1.0,North,3.5,-,N/A,,Overcast,10,2012-10-15 20:36:00
12:56 PM,19.4,17.6,93,29.16,1.5,North,4.6,-,N/A,,Overcast,10,2012-10-15 20:56:00
1:16 PM,19.4,17.6,93,29.16,2.0,North,4.6,-,N/A,,Overcast,10,2012-10-15 21:16:00
1:36 PM,19.4,17.6,93,29.17,2.0,North,5.8,-,N/A,,Overcast,360,2012-10-15 21:36:00
1:56 PM,19.4,17.6,93,29.17,1.2,North,5.8,-,N/A,,Overcast,10,2012-10-15 21:56:00
2:16 PM,19.4,17.6,93,29.17,1.0,North,4.6,-,N/A,,Overcast,360,2012-10-15 22:16:00
2:36 PM,19.4,17.6,93,29.16,1.5,North,6.9,-,N/A,,Overcast,360,2012-10-15 22:36:00
2:56 PM,19.4,17.6,93,29.16,1.8,North,6.9,-,N/A,,Overcast,360,2012-10-15 22:56:00
3:16 PM,21.2,17.6,86,29.16,4.0,North,6.9,-,N/A,,Overcast,360,2012-10-15 23:16:00
3:36 PM,21.2,17.6,86,29.16,5.0,North,6.9,-,N/A,,Overcast,360,2012-10-15 23:36:00
3:56 PM,21.2,17.6,86,29.16,10.0,North,6.9,-,N/A,,Overcast,360,2012-10-15 23:56:00
4:16 PM,21.2,17.6,86,29.16,5.0,NNE,5.8,-,N/A,,Overcast,20,2012-10-16 00:16:00
4:36 PM,21.2,17.6,86,29.16,9.0,North,5.8,-,N/A,,Overcast,10,2012-10-16 00:36:00
4:56 PM,19.4,15.8,86,29.16,2.5,NNE,4.6,-,N/A,,Overcast,20,2012-10-16 00:56:00
5:16 PM,19.4,17.6,93,29.16,0.8,North,4.6,-,N/A,,Overcast,360,2012-10-16 01:16:00
5:36 PM,19.4,15.8,86,29.17,4.0,North,6.9,-,N/A,,Overcast,10,2012-10-16 01:36:00
5:56 PM,19.4,15.8,86,29.16,4.0,North,5.8,-,N/A,,Overcast,10,2012-10-16 01:56:00
6:16 PM,19.4,15.8,86,29.17,1.0,North,5.8,-,N/A,,Overcast,10,2012-10-16 02:16:00
6:36 PM,19.4,15.8,86,29.17,1.8,NNE,6.9,-,N/A,,Overcast,20,2012-10-16 02:36:00
6:56 PM,19.4,15.8,86,29.17,2.0,NNE,5.8,-,N/A,,Overcast,20,2012-10-16 02:56:00
7:16 PM,17.6,15.8,93,29.17,2.0,NNE,5.8,-,N/A,,Overcast,20,2012-10-16 03:16:00
7:36 PM,17.6,15.8,93,29.18,2.5,North,5.8,-,N/A,,Overcast,360,2012-10-16 03:36:00
7:56 PM,17.6,15.8,93,29.18,1.8,North,4.6,-,N/A,,Overcast,10,2012-10-16 03:56:00
8:16 PM,17.6,15.8,93,29.19,2.0,North,5.8,-,N/A,,Overcast,10,2012-10-16 04:16:00
8:36 PM,17.6,15.8,93,29.19,2.5,North,5.8,-,N/A,,Overcast,10,2012-10-16 04:36:00
8:56 PM,17.6,15.8,93,29.19,2.5,North,4.6,-,N/A,,Overcast,10,2012-10-16 04:56:00
9:16 PM,17.6,15.8,93,29.20,8.0,North,3.5,-,N/A,,Overcast,10,2012-10-16 05:16:00
9:36 PM,17.6,15.8,93,29.20,10.0,North,4.6,-,N/A,,Overcast,10,2012-10-16 05:36:00
9:56 PM,17.6,15.8,93,29.20,10.0,North,5.8,-,N/A,,Overcast,360,2012-10-16 05:56:00
10:16 PM,17.6,15.8,93,29.21,8.0,North,5.8,-,N/A,,Overcast,10,2012-10-16 06:16:00
10:36 PM,17.6,15.8,93,29.21,5.0,North,3.5,-,N/A,,Overcast,10,2012-10-16 06:36:00
10:56 PM,17.6,15.8,93,29.20,10.0,North,5.8,-,N/A,,Overcast,360,2012-10-16 06:56:00
11:16 PM,17.6,15.8,93,29.21,10.0,North,5.8,-,N/A,,Overcast,360,2012-10-16 07:16:00
11:36 PM,17.6,15.8,93,29.21,10.0,North,6.9,-,N/A,,Overcast,360,2012-10-16 07:36:00
11:56 PM,17.6,15.8,93,29.21,4.0,North,5.8,-,N/A,,Overcast,10,2012-10-16 07:56:00